Location: Bakov nad Jizerou
(50.4784°N, 14.9394°E)
Time: 20:29:24
(UTC+00:00)

SL-8 R/B - Pass Details

Date: 23 October 2021
Orbit: 656 x 667 km, 48.4° (Epoch: 03 December)

Event Time Altitude Azimuth Distance (km) Brightness Sun altitude
Rises 17:17:02 0° 250° (WSW) 2,980 8.5 -14.1°
Reaches altitude 10° 17:19:23 10° 247° (WSW) 2,071 7.4 -14.5°
Maximum altitude 17:24:06 62° 168° (SSE) 747 3.9 -15.2°
Enters shadow 17:26:37 27° 96° (E) 1,275 4.6 -15.6°
